This is the latest recevied weather packets stored in our database for station/object SA7AHC. If no packets are shown the sender has not sent any weather packets the latest 10 day(s).
| Time | Temp. | Humidity | Pressure | Rain* | Wind** | Luminosity | Snow |
|---|---|---|---|---|---|---|---|
| 1778248985 | 17.22° C | 25% | 1025.7 hPa | 0 mm | - | 615 W/m² | - |
| 1778248387 | 16.67° C | 27% | 1025.7 hPa | 0 mm | - | 635 W/m² | - |
| 1778247789 | 16.67° C | 26% | 1025.7 hPa | 0 mm | - | 647 W/m² | - |
| 1778247190 | 17.22° C | 28% | 1025.8 hPa | 0 mm | - | 661 W/m² | - |
| 1778246583 | 16.67° C | 25% | 1025.8 hPa | 0 mm | - | 673 W/m² | - |
| 1778245983 | 16.67° C | 28% | 1026 hPa | 0 mm | - | 687 W/m² | - |
| 1778245389 | 16.67° C | 26% | 1026 hPa | 0 mm | - | 700 W/m² | - |
| 1778244791 | 16.67° C | 24% | 1026 hPa | 0 mm | - | 714 W/m² | - |
| 1778244189 | 16.67° C | 26% | 1025.9 hPa | 0 mm | - | 724 W/m² | - |
| 1778243586 | 15.56° C | 29% | 1026 hPa | 0 mm | - | 738 W/m² | - |
| 1778242987 | 15.56° C | 25% | 1026.1 hPa | 0 mm | - | 751 W/m² | - |
| 1778242386 | 16.11° C | 28% | 1026.1 hPa | 0 mm | - | 756 W/m² | - |
| 1778241786 | 16.67° C | 26% | 1026 hPa | 0 mm | - | 766 W/m² | - |
| 1778241186 | 16.67° C | 27% | 1026 hPa | 0 mm | - | 773 W/m² | - |
| 1778240586 | 16.11° C | 26% | 1026.1 hPa | 0 mm | - | 777 W/m² | - |
| 1778239986 | 15.56° C | 30% | 1026.1 hPa | 0 mm | - | 786 W/m² | - |
| 1778239386 | 15° C | 28% | 1026 hPa | 0 mm | - | 788 W/m² | - |
| 1778238783 | 15.56° C | 27% | 1026 hPa | 0 mm | - | 742 W/m² | - |
| 1778238196 | 15° C | 27% | 1025.9 hPa | 0 mm | - | 791 W/m² | - |
| 1778237586 | 15.56° C | 27% | 1025.9 hPa | 0 mm | - | 791 W/m² | - |
| 1778236983 | 15.56° C | 29% | 1026 hPa | 0 mm | - | 789 W/m² | - |
| 1778236386 | 15° C | 27% | 1025.9 hPa | 0 mm | - | 784 W/m² | - |
| 1778235789 | 15° C | 28% | 1025.9 hPa | 0 mm | - | 780 W/m² | - |
| 1778235186 | 15° C | 30% | 1025.9 hPa | 0 mm | - | 777 W/m² | - |
| 1778234588 | 14.44° C | 29% | 1026 hPa | 0 mm | - | 770 W/m² | - |
* Rain latest hour (hover to see other rain measurements)
** Current wind speed in m/s (hover to see current wind gust speed)